| time (UTC) | temp F | wind direction | speed knots | gust knots | rain 1hr in | rain 24hr in | rain mn in | humidity % | barometer mb |
| 20260506103403 | 56 | 349 | 0.9 | 1.7 | 0.00 | 0.02 | 0.00 | 62 | 1014.3 |
| 20260506102905 | 56 | 354 | 0.9 | 1.7 | 0.00 | 0.02 | 0.00 | 62 | 1014.3 |
| 20260506102403 | 56 | 5 | 0.9 | 1.7 | 0.00 | 0.02 | 0.00 | 62 | 1014.3 |
| 20260506101903 | 56 | 6 | 0.0 | 0.9 | 0.00 | 0.02 | 0.00 | 62 | 1014.2 |
| 20260506101403 | 55 | 5 | 0.0 | 1.7 | 0.00 | 0.03 | 0.00 | 62 | 1014.2 |
| 20260506100904 | 55 | 5 | 0.0 | 1.7 | 0.00 | 0.03 | 0.00 | 63 | 1014.1 |
| 20260506100403 | 55 | 5 | 0.9 | 0.9 | 0.00 | 0.03 | 0.00 | 62 | 1014.2 |
| 20260506095903 | 55 | 345 | 0.0 | 0.0 | 0.00 | 0.03 | 0.00 | 62 | 1014.1 |
| 20260506094903 | 55 | 345 | 0.0 | 0.0 | 0.00 | 0.03 | 0.00 | 61 | 1014.0 |
| 20260506094403 | 55 | 345 | 0.0 | 0.0 | 0.00 | 0.03 | 0.00 | 60 | 1014.0 |
| 20260506093903 | 55 | 345 | 0.0 | 0.0 | 0.00 | 0.03 | 0.00 | 60 | 1014.0 |
| 20260506093403 | 55 | 345 | 0.0 | 0.0 | 0.00 | 0.03 | 0.00 | 60 | 1014.0 |
| 20260506092904 | 55 | 345 | 0.0 | 0.0 | 0.00 | 0.03 | 0.00 | 60 | 1014.0 |
| 20260506091404 | 56 | 345 | 0.0 | 0.0 | 0.00 | 0.03 | 0.00 | 59 | 1013.9 |
| 20260506090404 | 56 | 345 | 0.0 | 0.0 | 0.00 | 0.03 | 0.00 | 58 | 1013.9 |
| 20260506084903 | 57 | 345 | 0.0 | 0.0 | 0.00 | 0.04 | 0.00 | 55 | 1014.1 |
| 20260506083903 | 57 | 345 | 0.0 | 0.0 | 0.00 | 0.04 | 0.00 | 54 | 1014.2 |
| 20260506083404 | 57 | 345 | 0.0 | 0.0 | 0.00 | 0.04 | 0.00 | 54 | 1014.2 |
| 20260506082903 | 58 | 345 | 0.0 | 0.0 | 0.00 | 0.04 | 0.00 | 52 | 1014.2 |
| 20260506082404 | 59 | 345 | 0.0 | 0.0 | 0.00 | 0.05 | 0.00 | 50 | 1014.2 |
| 20260506081404 | 59 | 345 | 0.0 | 0.9 | 0.00 | 0.06 | 0.00 | 47 | 1014.2 |
| 20260506080903 | 59 | 345 | 0.0 | 0.9 | 0.00 | 0.07 | 0.00 | 47 | 1014.2 |
| 20260506080403 | 60 | 342 | 0.0 | 1.7 | 0.00 | 0.07 | 0.00 | 47 | 1014.2 |
| 20260506073403 | 60 | 343 | 0.0 | 0.9 | 0.00 | 0.09 | 0.00 | 48 | 1014.2 |
| 20260506072903 | 60 | 343 | 0.0 | 0.9 | 0.00 | 0.10 | 0.00 | 47 | 1014.2 |
| 20260506072404 | 60 | 343 | 0.0 | 0.9 | 0.00 | 0.11 | 0.00 | 46 | 1014.2 |
| 20260506071903 | 60 | 343 | 0.0 | 0.9 | 0.00 | 0.11 | 0.00 | 46 | 1014.2 |
| 20260506071404 | 60 | 348 | 0.0 | 0.9 | 0.00 | 0.11 | 0.00 | 45 | 1014.2 |
| 20260506070903 | 61 | 344 | 0.0 | 0.9 | 0.00 | 0.11 | 0.00 | 46 | 1014.2 |
| 20260506062403 | 63 | 298 | 0.0 | 1.7 | 0.00 | 0.15 | 0.12 | 40 | 1013.9 |
| 20260506061903 | 63 | 296 | 0.0 | 1.7 | 0.00 | 0.15 | 0.12 | 40 | 1013.9 |
| 20260506061403 | 64 | 275 | 0.0 | 1.7 | 0.00 | 0.15 | 0.12 | 39 | 1014.0 |
| 20260506060404 | 64 | 291 | 0.0 | 2.6 | 0.00 | 0.15 | 0.12 | 38 | 1013.8 |
| 20260506051404 | 66 | 247 | 0.9 | 2.6 | 0.00 | 0.17 | 0.12 | 37 | 1013.6 |
| 20260506050904 | 66 | 267 | 0.9 | 5.2 | 0.00 | 0.17 | 0.12 | 37 | 1013.5 |
| 20260506050404 | 66 | 230 | 0.9 | 5.2 | 0.00 | 0.17 | 0.12 | 37 | 1013.4 |
| 20260506044904 | 66 | 239 | 2.6 | 6.1 | 0.00 | 0.17 | 0.12 | 38 | 1013.3 |
| 20260506044403 | 66 | 235 | 1.7 | 2.6 | 0.00 | 0.17 | 0.12 | 39 | 1013.3 |
| 20260506043903 | 66 | 237 | 1.7 | 2.6 | 0.00 | 0.17 | 0.12 | 39 | 1013.3 |
| 20260506043403 | 66 | 233 | 0.9 | 2.6 | 0.00 | 0.17 | 0.12 | 38 | 1013.2 |
| 20260506042403 | 67 | 246 | 0.9 | 2.6 | 0.00 | 0.17 | 0.12 | 38 | 1013.2 |
| 20260506041903 | 67 | 244 | 0.9 | 2.6 | 0.00 | 0.18 | 0.12 | 38 | 1013.1 |
| 20260506041403 | 67 | 243 | 0.9 | 1.7 | 0.00 | 0.18 | 0.12 | 38 | 1013.1 |
| 20260506040904 | 67 | 134 | 0.0 | 1.7 | 0.00 | 0.18 | 0.12 | 37 | 1013.0 |
| 20260506040404 | 67 | 211 | 0.9 | 1.7 | 0.00 | 0.19 | 0.12 | 37 | 1012.9 |
| 20260506035904 | 68 | 219 | 0.9 | 2.6 | 0.00 | 0.19 | 0.12 | 37 | 1012.5 |
| 20260506035403 | 68 | 252 | 0.9 | 4.3 | 0.00 | 0.20 | 0.12 | 36 | 1012.5 |
| 20260506034903 | 68 | 225 | 1.7 | 4.3 | 0.00 | 0.21 | 0.12 | 37 | 1012.4 |
| 20260506034403 | 68 | 242 | 1.7 | 7.0 | 0.00 | 0.21 | 0.12 | 38 | 1012.3 |
| 20260506033904 | 68 | 247 | 2.6 | 7.0 | 0.00 | 0.21 | 0.12 | 39 | 1012.3 |
| 20260506033404 | 68 | 229 | 2.6 | 7.8 | 0.00 | 0.21 | 0.12 | 39 | 1012.1 |
| 20260506032404 | 69 | 211 | 1.7 | 6.1 | 0.00 | 0.21 | 0.12 | 40 | 1012.0 |
| 20260506031904 | 69 | 253 | 1.7 | 5.2 | 0.00 | 0.21 | 0.12 | 39 | 1011.9 |
| 20260506030904 | 69 | 240 | 1.7 | 6.1 | 0.00 | 0.21 | 0.12 | 36 | 1011.7 |
| 20260506030404 | 69 | 232 | 1.7 | 5.2 | 0.00 | 0.21 | 0.12 | 35 | 1011.6 |
| 20260506025904 | 69 | 261 | 1.7 | 6.1 | 0.00 | 0.21 | 0.12 | 35 | 1011.5 |
| 20260506025403 | 69 | 256 | 0.9 | 6.1 | 0.00 | 0.21 | 0.12 | 35 | 1011.5 |
| 20260506024904 | 69 | 235 | 1.7 | 7.0 | 0.00 | 0.21 | 0.12 | 34 | 1011.4 |
| 20260506024403 | 69 | 230 | 2.6 | 7.0 | 0.00 | 0.21 | 0.12 | 34 | 1011.3 |
| 20260506023904 | 70 | 225 | 1.7 | 6.1 | 0.00 | 0.21 | 0.12 | 34 | 1011.3 |
| 20260506022903 | 70 | 224 | 2.6 | 8.7 | 0.00 | 0.21 | 0.12 | 34 | 1011.1 |
| 20260506021903 | 70 | 228 | 2.6 | 7.0 | 0.00 | 0.21 | 0.12 | 34 | 1011.0 |
| 20260506021404 | 70 | 235 | 2.6 | 7.0 | 0.00 | 0.21 | 0.12 | 33 | 1010.8 |
| 20260506020904 | 70 | 231 | 2.6 | 10.4 | 0.00 | 0.21 | 0.12 | 33 | 1010.7 |
| 20260506020403 | 71 | 242 | 2.6 | 10.4 | 0.00 | 0.21 | 0.12 | 33 | 1010.6 |
| 20260506015403 | 71 | 228 | 2.6 | 8.7 | 0.00 | 0.22 | 0.12 | 31 | 1010.5 |
| 20260506014403 | 71 | 240 | 4.3 | 10.4 | 0.00 | 0.22 | 0.12 | 30 | 1010.4 |
| 20260506013904 | 72 | 239 | 4.3 | 10.4 | 0.00 | 0.23 | 0.12 | 28 | 1010.4 |
| 20260506013404 | 72 | 235 | 3.5 | 10.4 | 0.00 | 0.23 | 0.12 | 28 | 1010.3 |
| 20260506012903 | 72 | 241 | 5.2 | 10.4 | 0.00 | 0.23 | 0.12 | 28 | 1010.3 |
| 20260506012404 | 72 | 237 | 5.2 | 12.2 | 0.00 | 0.23 | 0.12 | 28 | 1010.3 |
| 20260506011904 | 73 | 232 | 5.2 | 12.2 | 0.00 | 0.23 | 0.12 | 28 | 1010.2 |
| 20260506011404 | 73 | 236 | 5.2 | 12.2 | 0.00 | 0.23 | 0.12 | 28 | 1010.2 |
| 20260506010403 | 73 | 236 | 5.2 | 13.9 | 0.00 | 0.23 | 0.12 | 29 | 1010.2 |
| 20260506005903 | 73 | 239 | 6.1 | 13.9 | 0.00 | 0.23 | 0.12 | 29 | 1010.1 |
| 20260506005403 | 73 | 230 | 6.1 | 13.9 | 0.00 | 0.23 | 0.12 | 29 | 1010.1 |
| 20260506004403 | 74 | 232 | 4.3 | 13.0 | 0.00 | 0.23 | 0.12 | 29 | 1010.1 |
| 20260506003904 | 74 | 253 | 7.8 | 13.0 | 0.00 | 0.23 | 0.12 | 28 | 1010.0 |
| 20260506002903 | 75 | 229 | 4.3 | 12.2 | 0.00 | 0.23 | 0.12 | 28 | 1009.9 |
| 20260506002404 | 75 | 237 | 4.3 | 12.2 | 0.00 | 0.23 | 0.12 | 28 | 1009.8 |
| 20260506001903 | 76 | 235 | 5.2 | 10.4 | 0.00 | 0.23 | 0.12 | 26 | 1009.9 |
| 20260506001404 | 76 | 236 | 4.3 | 14.8 | 0.00 | 0.23 | 0.12 | 26 | 1009.7 |
| 20260506000904 | 76 | 228 | 6.1 | 14.8 | 0.00 | 0.23 | 0.12 | 26 | 1009.8 |
| 20260505235903 | 77 | 235 | 5.2 | 12.2 | 0.00 | 0.23 | 0.12 | 26 | 1009.6 |
| 20260505235403 | 77 | 239 | 4.3 | 12.2 | 0.00 | 0.23 | 0.12 | 25 | 1009.6 |
| 20260505234903 | 77 | 198 | 4.3 | 12.2 | 0.00 | 0.23 | 0.12 | 26 | 1009.5 |
| 20260505234404 | 77 | 242 | 6.1 | 12.2 | 0.00 | 0.23 | 0.12 | 26 | 1009.4 |
| 20260505233903 | 77 | 233 | 4.3 | 13.0 | 0.00 | 0.23 | 0.12 | 26 | 1009.4 |
| 20260505233403 | 77 | 229 | 5.2 | 13.0 | 0.00 | 0.23 | 0.12 | 25 | 1009.4 |
| 20260505232903 | 78 | 231 | 5.2 | 13.0 | 0.00 | 0.23 | 0.12 | 25 | 1009.4 |
| 20260505232403 | 77 | 222 | 3.5 | 12.2 | 0.00 | 0.23 | 0.12 | 25 | 1009.3 |
| 20260505231903 | 78 | 219 | 5.2 | 12.2 | 0.00 | 0.23 | 0.12 | 25 | 1009.4 |
| 20260505231403 | 78 | 210 | 4.3 | 12.2 | 0.00 | 0.23 | 0.12 | 25 | 1009.4 |
| 20260505230903 | 78 | 237 | 5.2 | 10.4 | 0.00 | 0.23 | 0.12 | 26 | 1009.4 |
| 20260505230403 | 78 | 227 | 3.5 | 10.4 | 0.00 | 0.23 | 0.12 | 27 | 1009.4 |
| 20260505225404 | 78 | 229 | 5.2 | 13.9 | 0.00 | 0.23 | 0.12 | 26 | 1009.4 |
| 20260505224903 | 78 | 227 | 4.3 | 10.4 | 0.00 | 0.23 | 0.12 | 27 | 1009.4 |
| 20260505224403 | 77 | 233 | 3.5 | 10.4 | 0.00 | 0.23 | 0.12 | 28 | 1009.5 |
| 20260505223903 | 76 | 225 | 2.6 | 10.4 | 0.00 | 0.23 | 0.12 | 27 | 1009.6 |
| 20260505223403 | 76 | 231 | 4.3 | 12.2 | 0.00 | 0.23 | 0.12 | 29 | 1009.8 |
| 20260505222904 | 76 | 228 | 5.2 | 12.2 | 0.00 | 0.23 | 0.12 | 28 | 1009.7 |
| 20260505222404 | 76 | 204 | 4.3 | 11.3 | 0.00 | 0.23 | 0.12 | 28 | 1009.8 |
| 20260505221903 | 77 | 243 | 4.3 | 12.2 | 0.00 | 0.23 | 0.12 | 28 | 1009.9 |
| 20260505220903 | 78 | 199 | 2.6 | 10.4 | 0.00 | 0.23 | 0.12 | 28 | 1009.9 |
| 20260505220403 | 78 | 234 | 4.3 | 10.4 | 0.00 | 0.23 | 0.12 | 28 | 1009.9 |
| 20260505215904 | 77 | 263 | 3.5 | 10.4 | 0.00 | 0.23 | 0.12 | 28 | 1010.0 |
| 20260505215403 | 77 | 224 | 4.3 | 14.8 | 0.00 | 0.23 | 0.12 | 28 | 1010.1 |
| 20260505214904 | 78 | 236 | 6.1 | 14.8 | 0.00 | 0.23 | 0.12 | 28 | 1010.1 |
| 20260505214403 | 77 | 246 | 4.3 | 8.7 | 0.00 | 0.23 | 0.12 | 29 | 1010.1 |
| 20260505213404 | 77 | 222 | 3.5 | 10.4 | 0.00 | 0.23 | 0.12 | 30 | 1010.2 |
| 20260505211904 | 74 | 229 | 1.7 | 10.4 | 0.00 | 0.23 | 0.12 | 35 | 1010.5 |
| 20260505211403 | 75 | 228 | 3.5 | 10.4 | 0.00 | 0.23 | 0.12 | 35 | 1010.5 |
| 20260505210904 | 74 | 236 | 4.3 | 10.4 | 0.00 | 0.23 | 0.12 | 36 | 1010.6 |
| 20260505205903 | 76 | 234 | 5.2 | 11.3 | 0.00 | 0.23 | 0.12 | 39 | 1010.7 |
| 20260505204904 | 75 | 227 | 3.5 | 10.4 | 0.00 | 0.23 | 0.12 | 39 | 1010.6 |
| 20260505204403 | 76 | 245 | 2.6 | 7.0 | 0.00 | 0.23 | 0.12 | 40 | 1010.7 |
| 20260505203903 | 76 | 177 | 2.6 | 10.4 | 0.00 | 0.23 | 0.12 | 41 | 1010.8 |
| 20260505202904 | 76 | 217 | 3.5 | 10.4 | 0.00 | 0.23 | 0.12 | 37 | 1010.8 |
| 20260505201903 | 75 | 241 | 5.2 | 10.4 | 0.00 | 0.23 | 0.12 | 41 | 1010.9 |
| 20260505201404 | 75 | 231 | 2.6 | 10.4 | 0.00 | 0.23 | 0.12 | 42 | 1010.9 |
| 20260505200903 | 74 | 220 | 2.6 | 8.7 | 0.00 | 0.23 | 0.12 | 44 | 1010.9 |
| 20260505200403 | 74 | 244 | 1.7 | 8.7 | 0.00 | 0.23 | 0.12 | 41 | 1011.1 |
| 20260505195904 | 74 | 223 | 2.6 | 7.8 | 0.00 | 0.23 | 0.12 | 45 | 1011.1 |
| 20260505195404 | 75 | 239 | 2.6 | 7.8 | 0.00 | 0.23 | 0.12 | 43 | 1011.1 |
| 20260505194903 | 74 | 249 | 2.6 | 7.8 | 0.00 | 0.23 | 0.12 | 44 | 1011.0 |
| 20260505194404 | 75 | 221 | 1.7 | 8.7 | 0.00 | 0.23 | 0.12 | 45 | 1011.2 |
| 20260505193904 | 74 | 227 | 2.6 | 8.7 | 0.00 | 0.23 | 0.12 | 46 | 1011.3 |
| 20260505193404 | 73 | 237 | 3.5 | 10.4 | 0.00 | 0.23 | 0.12 | 48 | 1011.3 |
| 20260505192903 | 73 | 239 | 5.2 | 10.4 | 0.00 | 0.23 | 0.12 | 47 | 1011.2 |
| 20260505192404 | 74 | 245 | 4.3 | 8.7 | 0.00 | 0.23 | 0.12 | 47 | 1011.1 |
| 20260505191904 | 74 | 212 | 3.5 | 7.8 | 0.00 | 0.23 | 0.12 | 48 | 1011.2 |
| 20260505191403 | 72 | 257 | 1.7 | 10.4 | 0.00 | 0.23 | 0.12 | 50 | 1011.4 |
| 20260505190903 | 72 | 233 | 4.3 | 10.4 | 0.00 | 0.23 | 0.12 | 51 | 1011.6 |
| 20260505190403 | 73 | 216 | 1.7 | 7.0 | 0.00 | 0.23 | 0.12 | 50 | 1011.6 |
| 20260505185903 | 73 | 161 | 2.6 | 5.2 | 0.00 | 0.23 | 0.12 | 50 | 1011.6 |
| 20260505185403 | 72 | 246 | 0.9 | 5.2 | 0.00 | 0.23 | 0.12 | 53 | 1011.7 |
| 20260505184904 | 71 | 250 | 0.9 | 2.6 | 0.00 | 0.23 | 0.12 | 53 | 1011.7 |
| 20260505184403 | 71 | 345 | 1.7 | 2.6 | 0.00 | 0.23 | 0.12 | 54 | 1011.9 |
| 20260505183903 | 70 | 231 | 0.9 | 2.6 | 0.00 | 0.23 | 0.12 | 53 | 1011.7 |
| 20260505183404 | 70 | 309 | 1.7 | 4.3 | 0.00 | 0.23 | 0.12 | 52 | 1011.8 |
| 20260505182904 | 70 | 151 | 1.7 | 4.3 | 0.00 | 0.23 | 0.12 | 53 | 1011.9 |
| 20260505182404 | 71 | 160 | 0.9 | 2.6 | 0.00 | 0.23 | 0.12 | 55 | 1012.0 |
| 20260505181903 | 70 | 225 | 0.9 | 2.6 | 0.00 | 0.23 | 0.12 | 56 | 1012.0 |
| 20260505181403 | 68 | 255 | 0.9 | 2.6 | 0.00 | 0.23 | 0.12 | 57 | 1012.0 |
| 20260505180904 | 67 | 207 | 0.0 | 2.6 | 0.00 | 0.23 | 0.12 | 59 | 1012.1 |
| 20260505180404 | 68 | 238 | 0.9 | 2.6 | 0.00 | 0.23 | 0.12 | 58 | 1012.2 |
| 20260505175403 | 69 | 276 | 0.9 | 2.6 | 0.00 | 0.23 | 0.12 | 58 | 1012.4 |
| 20260505174403 | 67 | 245 | 0.9 | 2.6 | 0.00 | 0.23 | 0.12 | 59 | 1012.5 |
| 20260505173904 | 68 | 261 | 0.9 | 2.6 | 0.00 | 0.23 | 0.12 | 61 | 1012.4 |
| 20260505173403 | 67 | 48 | 0.0 | 2.6 | 0.00 | 0.23 | 0.12 | 61 | 1012.6 |
| 20260505172403 | 67 | 329 | 0.9 | 2.6 | 0.00 | 0.23 | 0.12 | 60 | 1012.6 |
| 20260505171903 | 67 | 192 | 0.9 | 2.6 | 0.00 | 0.23 | 0.12 | 58 | 1012.4 |
| 20260505171404 | 67 | 275 | 0.9 | 2.6 | 0.00 | 0.23 | 0.12 | 60 | 1012.5 |
| 20260505170403 | 66 | 192 | 0.9 | 2.6 | 0.00 | 0.23 | 0.12 | 60 | 1012.5 |
| 20260505165903 | 67 | 231 | 0.9 | 2.6 | 0.00 | 0.23 | 0.12 | 60 | 1012.4 |
| 20260505165404 | 67 | 206 | 1.7 | 2.6 | 0.00 | 0.23 | 0.12 | 61 | 1012.4 |
| 20260505164903 | 67 | 247 | 0.0 | 2.6 | 0.00 | 0.23 | 0.12 | 63 | 1012.4 |
| 20260505164404 | 66 | 198 | 0.0 | 4.3 | 0.00 | 0.23 | 0.12 | 62 | 1012.4 |
| 20260505163904 | 66 | 206 | 1.7 | 4.3 | 0.00 | 0.23 | 0.12 | 63 | 1012.5 |
| 20260505163403 | 65 | 225 | 1.7 | 2.6 | 0.00 | 0.23 | 0.12 | 64 | 1012.5 |
| 20260505162904 | 65 | 339 | 0.9 | 2.6 | 0.00 | 0.23 | 0.12 | 63 | 1012.3 |
| 20260505161904 | 65 | 229 | 0.9 | 4.3 | 0.00 | 0.23 | 0.12 | 64 | 1012.5 |
| 20260505161405 | 65 | 211 | 1.7 | 4.3 | 0.00 | 0.23 | 0.12 | 66 | 1012.5 |
| 20260505160903 | 64 | 155 | 0.9 | 2.6 | 0.00 | 0.23 | 0.12 | 68 | 1012.4 |
| 20260505160404 | 64 | 237 | 1.7 | 2.6 | 0.00 | 0.23 | 0.12 | 66 | 1012.4 |
| 20260505152404 | 64 | 186 | 0.9 | 2.6 | 0.00 | 0.23 | 0.12 | 73 | 1012.2 |
| 20260505151904 | 63 | 248 | 0.9 | 2.6 | 0.00 | 0.23 | 0.12 | 79 | 1012.4 |
| 20260505151404 | 63 | 254 | 0.9 | 2.6 | 0.00 | 0.23 | 0.12 | 79 | 1012.3 |
| 20260505150903 | 63 | 227 | 0.9 | 2.6 | 0.00 | 0.23 | 0.12 | 80 | 1012.4 |
| 20260505150403 | 62 | 225 | 0.9 | 2.6 | 0.00 | 0.23 | 0.12 | 80 | 1012.3 |
| 20260505140404 | 61 | 244 | 0.0 | 1.7 | 0.00 | 0.23 | 0.12 | 86 | 1012.2 |
| 20260505123903 | 59 | 221 | 0.0 | 1.7 | 0.00 | 0.23 | 0.12 | 86 | 1011.2 |
| 20260505123404 | 59 | 229 | 0.0 | 0.9 | 0.00 | 0.23 | 0.12 | 86 | 1011.1 |
| 20260505122403 | 59 | 229 | 0.0 | 0.9 | 0.00 | 0.23 | 0.12 | 86 | 1011.1 |
| 20260505121904 | 60 | 229 | 0.0 | 1.7 | 0.00 | 0.23 | 0.12 | 86 | 1011.2 |
| 20260505121404 | 59 | 229 | 0.9 | 1.7 | 0.00 | 0.23 | 0.12 | 85 | 1011.2 |
| 20260505120904 | 59 | 119 | 0.0 | 1.7 | 0.01 | 0.23 | 0.12 | 85 | 1011.2 |
| 20260505114903 | 59 | 102 | 0.0 | 5.2 | 0.01 | 0.23 | 0.12 | 85 | 1010.9 |
| 20260505113903 | 59 | 129 | 0.9 | 5.2 | 0.02 | 0.23 | 0.12 | 85 | 1010.7 |
| 20260505113403 | 59 | 107 | 1.7 | 2.6 | 0.02 | 0.23 | 0.12 | 85 | 1010.7 |
| 20260505112903 | 59 | 134 | 0.9 | 2.6 | 0.02 | 0.23 | 0.12 | 86 | 1010.9 |
| 20260505112403 | 59 | 197 | 0.0 | 1.7 | 0.02 | 0.23 | 0.12 | 86 | 1011.1 |
| 20260505111904 | 59 | 115 | 0.9 | 1.7 | 0.02 | 0.23 | 0.12 | 86 | 1011.1 |
| 20260505111404 | 59 | 170 | 0.9 | 4.3 | 0.03 | 0.23 | 0.12 | 86 | 1011.0 |
| 20260505110904 | 59 | 173 | 0.9 | 4.3 | 0.02 | 0.22 | 0.11 | 86 | 1011.0 |
| 20260505110403 | 59 | 120 | 1.7 | 2.6 | 0.02 | 0.22 | 0.11 | 86 | 1010.8 |